[[{"header":{"parameterUnit":"m.s-1","parameterCategory":2,"la1":30.2991,"la2":30.254,"lo1":-89.0895,"lo2":-89.0444,"dy":0.0017,"dx":0.0017,"nx":28,"ny":28,"refTime":"2023-08-14T21:00:00:Z","depth":"0","parameterNumber":2,"parameterNumberName":"U-component_of_CURRENTS"},"data":[0,0,0,0,0,0,0,0,0,0,0,0,0,0,0,0,0,0,0,0,0,0,0,0,0,0,0,0,0,0,0,0,0,0,0,0,0,0,0,0,0,0,0,0,0,0,0,0,0,0,0,0,0,0,0,0,0,0,0.3711,0.3712,0,0.3802,0.3803,0.3804,0.3803,0.3802,0.3801,0.38,0.3877,0.3879,0.3882,0,0,0,0,0,0,0,0,0,0,0,0,0,0.3531,0.3534,0.371,0.3712,0.3714,0.3802,0.3803,0.3804,0.3803,0.3802,0.3801,0.38,0.3876,0.3879,0.3882,0,0,0,0,0,0,0,0,0,0,0,0,0,0.3611,0.3535,0.371,0.3727,0.3729,0.3802,0.3803,0.3804,0.3803,0.3802,0.3801,0.3799,0.3874,0.3879,0.3883,0.3934,0,0,0.3896,0.3898,0,0,0,0,0,0,0,0,0.3606,0.3617,0.3723,0.3726,0.3729,0.3793,0.3768,0.3848,0.3804,0.3771,0.38,0.3799,0.3851,0.3857,0.3872,0.3938,0.3941,0.3896,0.3899,0.39,0.3902,0,0,0,0,0,0,0,0.3601,0.3613,0.3743,0.3725,0.3728,0.3729,0.3738,0.3783,0.3814,0.3774,0.3775,0.3792,0.3852,0.3867,0.3873,0.3942,0.3896,0.39,0.3902,0.3904,0.4145,0.4149,0,0,0,0,0,0,0.36,0.3608,0.374,0.3746,0.3668,0.3733,0.3744,0.3771,0.3813,0.382,0.3793,0.3792,0.3861,0.3868,0.3876,0.4012,0.39,0.3904,0.3907,0.4141,0.4146,0.415,0,0,0,0,0,0,0.3596,0.3611,0.3736,0.3681,0.3698,0.3738,0.3768,0.3773,0.3795,0.3829,0.3834,0.381,0.386,0.387,0.3948,0.4012,0.3906,0.391,0.4137,0.4143,0.4148,0.4238,0,0,0,0,0,0,0.359,0.3609,0.3632,0.3682,0.3701,0.3803,0.377,0.3776,0.3809,0.3808,0.3846,0.3851,0.386,0.3942,0.3953,0.4016,0.3913,0.4132,0.414,0.4146,0.423,0.4246,0.426,0,0,0,0,0,0.3584,0.3631,0.3632,0.3649,0.373,0.3806,0.3816,0.3836,0.3811,0.3845,0.3873,0.385,0.3996,0.3949,0.396,0.4026,0.4128,0.4137,0.4146,0.4224,0.4243,0.426,0,0,0,0,0,0,0.3575,0.3637,0.3639,0.3705,0.3758,0.3807,0.3841,0.3845,0.3892,0.3888,0.3897,0.3908,0.4013,0.4009,0.3957,0.4121,0.406,0.4072,0.4116,0.4134,0.4149,0.4143,0.3917,0,0,0,0,0,0.3581,0.3627,0.3685,0.374,0.3765,0.3799,0.383,0.3847,0.3893,0.391,0.3936,0.398,0.406,0.4083,0.4149,0.4222,0.4265,0.4276,0.4291,0.4303,0.431,0.445,0.4478,0.4179,0.4179,0.4179,0,0,0.3593,0.3634,0.366,0.374,0.3774,0.3836,0.3815,0.3876,0.3927,0.3914,0.399,0.4043,0.4099,0.4202,0.4245,0.4198,0.4417,0.4314,0.4324,0.4324,0.4462,0.4491,0.4517,0.4185,0.4184,0.4183,0,0,0.3643,0.3676,0.3727,0.3776,0.3843,0.3872,0.3891,0.3949,0.3976,0.4059,0.4084,0.4176,0.4251,0.4324,0.4365,0.4502,0.4508,0.4514,0.4564,0.47,0.4726,0.4748,0.4855,0.4887,0.45,0.45,0.45,0,0.3659,0.3721,0.3757,0.3821,0.3861,0.3889,0.395,0.3999,0.4076,0.4114,0.4096,0.4275,0.4321,0.447,0.452,0.4537,0.4596,0.4484,0.4719,0.4742,0.4764,0.4868,0.4901,0.4505,0.4505,0.4504,0.4504,0,0.3737,0.3791,0.383,0.391,0.3966,0.4026,0.4092,0.4145,0.4167,0.4215,0.4356,0.4435,0.4533,0.4577,0.4587,0.4769,0.4758,0.4737,0.4666,0.4799,0.4901,0.4934,0.4513,0.4511,0.451,0.4508,0,0,0.3763,0.3861,0.3874,0.3902,0.4009,0.4053,0.4157,0.4252,0.4301,0.4398,0.4486,0.4652,0.4677,0.4729,0.4771,0.4877,0.5094,0.4862,0.4867,0.4955,0.5386,0.53,0.5327,0.5109,0.5115,0.512,0.54,0,0.3809,0.3901,0.3956,0.4045,0.409,0.4155,0.4241,0.4334,0.44,0.4494,0.4611,0.4715,0.4741,0.4783,0.4916,0.5054,0.5183,0.5019,0.5255,0.5262,0.5158,0.5364,0.5111,0.5332,0.5432,0.5437,0.5441,0,0.3862,0.3909,0.3987,0.4074,0.4101,0.416,0.4265,0.4347,0.45,0.4558,0.4695,0.4769,0.4976,0.4945,0.5282,0.5173,0.5297,0.5389,0.5402,0.5308,0.5238,0.5215,0.5388,0.5195,0.5492,0.5488,0.5484,0,0.3817,0.393,0.3971,0.4007,0.412,0.416,0.422,0.4357,0.4419,0.4588,0.4651,0.4891,0.4996,0.5222,0.5413,0.5372,0.5743,0.5712,0.576,0.5754,0.5578,0.5545,0.5575,0.5959,0.5958,0.5957,0.5956,0,0.3836,0.3866,0.3939,0.3959,0.4,0.4105,0.4166,0.4261,0.4404,0.449,0.4665,0.4778,0.5068,0.5287,0.5471,0.5725,0.5813,0.5824,0.5846,0.5602,0.557,0.5419,0.531,0.5968,0.5965,0.5963,0.5962,0,0.3776,0.3835,0.3866,0.3952,0.3974,0.3992,0.4094,0.4146,0.4295,0.4415,0.4471,0.4744,0.5033,0.5296,0.5655,0.5776,0.5859,0.6075,0.575,0.5729,0.5576,0.548,0.5439,0.5298,0.6221,0.6221,0.6221,0,0.3747,0.3755,0.3809,0.3811,0.3838,0.3879,0.3915,0.4064,0.4125,0.4387,0.4444,0.4737,0.4929,0.5417,0.5683,0.6014,0.5824,0.594,0.5828,0.5577,0.549,0.53,0.5171,0.565,0.5645,0.5641,0.5638,0,0.3663,0.3674,0.3695,0.37,0.3717,0.3738,0.38,0.3834,0.4027,0.4153,0.4355,0.4529,0.4969,0.5191,0.5579,0.5759,0.5604,0.587,0.5711,0.5143,0.4841,0.4708,0.5437,0.5603,0.5607,0.5609,0.5611,0.5613,0.3571,0.3558,0.358,0.3579,0.3587,0.3587,0.3581,0.3687,0.3781,0.3969,0.4194,0.4411,0.4727,0.525,0.5367,0.5377,0.5423,0.5288,0.5233,0.5097,0.4818,0.5458,0.5569,0.5572,0.5575,0.5578,0.558,0,0.3456,0.3464,0.3458,0.3447,0.3406,0.3461,0.3498,0.3501,0.3575,0.3818,0.3998,0.4231,0.4448,0.4682,0.4857,0.4757,0.4609,0.4633,0.4286,0.4227,0.4899,0.4723,0.4527,0.4527,0.4528,0.4528,0.4528,0.4528,0.34,0.3366,0.3376,0.3276,0.3257,0.3205,0.3205,0.3252,0.339,0.3511,0.3628,0.3796,0.4056,0.4246,0.4194,0.4149,0.3846,0.3702,0.3738,0.4153,0.4207,0.4259,0.4068,0.3738,0.3737,0.2896,0.2889,0.2883]},{"header":{"parameterUnit":"m.s-1","parameterCategory":2,"la1":30.2991,"la2":30.254,"lo1":-89.0895,"lo2":-89.0444,"dy":0.0017,"dx":0.0017,"nx":28,"ny":28,"refTime":"2023-08-14T21:00:00:Z","depth":"0","parameterNumber":3,"parameterNumberName":"V-component_of_CURRENTS"},"data":[0,0,0,0,0,0,0,0,0,0,0,0,0,0,0,0,0,0,0,0,0,0,0,0,0,0,0,0,0,0,0,0,0,0,0,0,0,0,0,0,0,0,0,0,0,0,0,0,0,0,0,0,0,0,0,0,0,0,0.0523,0.0523,0,0.0549,0.055,0.055,0.0492,0.049,0.0488,0.0486,0.0413,0.0413,0.0413,0,0,0,0,0,0,0,0,0,0,0,0,0,0.0411,0.0414,0.0523,0.0523,0.0523,0.0549,0.055,0.055,0.0492,0.049,0.0487,0.0485,0.0413,0.0413,0.0413,0,0,0,0,0,0,0,0,0,0,0,0,0,0.0454,0.0415,0.0523,0.0495,0.0493,0.0549,0.055,0.055,0.0493,0.049,0.0486,0.0483,0.0413,0.0413,0.0413,0.0477,0,0,0.0413,0.0413,0,0,0,0,0,0,0,0,0.0451,0.0458,0.0499,0.0497,0.0494,0.0512,0.0484,0.052,0.0494,0.0496,0.0486,0.0482,0.0437,0.0435,0.0453,0.0474,0.0471,0.0413,0.0413,0.0413,0.0413,0,0,0,0,0,0,0,0.0449,0.0457,0.0536,0.0499,0.0496,0.0478,0.048,0.0491,0.0484,0.0495,0.049,0.049,0.0435,0.0453,0.045,0.047,0.0413,0.0413,0.0414,0.0414,0.0517,0.052,0,0,0,0,0,0,0.0445,0.0455,0.0535,0.0536,0.0462,0.0482,0.0485,0.0511,0.0486,0.0479,0.0493,0.0487,0.0454,0.045,0.0447,0.0526,0.0413,0.0414,0.0414,0.0514,0.0518,0.0521,0,0,0,0,0,0,0.0443,0.0453,0.0534,0.0491,0.05,0.0487,0.0517,0.0514,0.0526,0.0485,0.0476,0.0507,0.0452,0.0447,0.047,0.0522,0.0414,0.0414,0.0511,0.0515,0.0519,0.0681,0,0,0,0,0,0,0.044,0.0453,0.0487,0.0493,0.0502,0.0583,0.052,0.0516,0.053,0.0523,0.0495,0.0485,0.0449,0.0471,0.047,0.052,0.0414,0.0508,0.0513,0.0518,0.0672,0.069,0.0705,0,0,0,0,0,0.0437,0.0501,0.0489,0.0499,0.0545,0.0585,0.0591,0.057,0.0534,0.0565,0.0541,0.0486,0.0501,0.0474,0.0473,0.0523,0.0505,0.0512,0.0518,0.0665,0.0686,0.0705,0,0,0,0,0,0,0.049,0.0502,0.0488,0.0558,0.0572,0.0574,0.0609,0.0586,0.0597,0.0586,0.0531,0.0523,0.056,0.0526,0.0497,0.0567,0.0491,0.0498,0.0604,0.0624,0.064,0.0662,0.0414,0,0,0,0,0,0.0515,0.0558,0.0561,0.0622,0.0631,0.0621,0.0637,0.0623,0.0624,0.0625,0.0604,0.0586,0.0591,0.0592,0.059,0.0641,0.0594,0.0669,0.0685,0.07,0.0717,0.07,0.0716,0.0541,0.0541,0.0541,0,0,0.0553,0.0567,0.0592,0.0634,0.0644,0.0691,0.0625,0.0664,0.0704,0.0618,0.0675,0.0648,0.0618,0.0669,0.0682,0.0643,0.0726,0.0707,0.072,0.073,0.0708,0.0725,0.074,0.0545,0.0544,0.0543,0,0,0.0645,0.0664,0.072,0.0739,0.0759,0.076,0.0772,0.0782,0.0786,0.0838,0.0782,0.0794,0.0804,0.0798,0.0793,0.0905,0.0814,0.0894,0.0999,0.0983,0.0997,0.1009,0.0971,0.0978,0.0902,0.0902,0.0903,0,0.0686,0.0759,0.0746,0.0802,0.0831,0.0794,0.086,0.0878,0.0895,0.0916,0.0873,0.0902,0.0873,0.0929,0.0964,0.0945,0.0904,0.0926,0.1004,0.1015,0.1024,0.0982,0.0988,0.0911,0.091,0.0909,0.0908,0,0.0806,0.0865,0.0906,0.0959,0.0994,0.105,0.1057,0.1093,0.1085,0.1089,0.114,0.1108,0.1116,0.1114,0.1075,0.1136,0.1075,0.1026,0.0953,0.1052,0.1001,0.1004,0.0923,0.092,0.0917,0.0915,0,0,0.0887,0.0971,0.0983,0.1029,0.1078,0.112,0.1199,0.1258,0.1307,0.1313,0.1374,0.1387,0.1344,0.1336,0.1283,0.1275,0.1305,0.1188,0.1183,0.115,0.1251,0.1195,0.1191,0.1261,0.1262,0.1264,0.1189,0,0.098,0.1101,0.1125,0.1249,0.1309,0.1315,0.1393,0.1437,0.1458,0.1508,0.1476,0.151,0.1434,0.1435,0.1422,0.1348,0.1321,0.1329,0.1161,0.1156,0.1094,0.1197,0.11,0.1024,0.1191,0.1191,0.1191,0,0.1081,0.1146,0.1272,0.1381,0.1411,0.1478,0.1579,0.1645,0.1696,0.1709,0.1727,0.1685,0.1702,0.1597,0.1527,0.1532,0.1407,0.1327,0.1321,0.1217,0.1107,0.0952,0.1022,0.0732,0.1195,0.1195,0.1194,0,0.1123,0.1254,0.1354,0.1391,0.1503,0.1566,0.1629,0.1703,0.1768,0.1827,0.187,0.1858,0.1856,0.1741,0.1583,0.1556,0.1467,0.1403,0.1226,0.1218,0.1079,0.1057,0.0848,0.132,0.132,0.132,0.1321,0,0.1208,0.129,0.1378,0.1432,0.1554,0.1619,0.1748,0.1803,0.189,0.1985,0.1965,0.2027,0.1889,0.1815,0.1644,0.1466,0.1511,0.1271,0.1213,0.1132,0.1118,0.081,0.0698,0.1318,0.1318,0.1319,0.1319,0,0.1238,0.13,0.141,0.1529,0.1573,0.1653,0.1805,0.1899,0.1979,0.2098,0.2123,0.2159,0.2104,0.1925,0.1742,0.1552,0.1218,0.1268,0.1178,0.1113,0.0706,0.0609,0.0407,0.0328,0.1101,0.11,0.1098,0,0.1264,0.1321,0.1448,0.1509,0.1565,0.1693,0.1792,0.1916,0.2021,0.2188,0.2252,0.2251,0.2277,0.2008,0.168,0.1381,0.1148,0.1049,0.0992,0.0695,0.0544,0.0484,0.0429,0.0858,0.0855,0.0852,0.085,0,0.1294,0.1328,0.1408,0.1526,0.1634,0.1773,0.1924,0.202,0.2185,0.2317,0.2474,0.2517,0.2282,0.1987,0.1565,0.1324,0.0863,0.0988,0.07,0.0374,0.0275,0.0166,0.0877,0.0827,0.0829,0.0831,0.0832,0.0833,0.1286,0.1338,0.1432,0.1548,0.168,0.1847,0.1975,0.2153,0.2351,0.2592,0.2619,0.2741,0.223,0.1694,0.1327,0.057,0.0704,0.0326,0.0244,0.0217,0.0117,0.0786,0.0662,0.0663,0.0664,0.0665,0.0666,0,0.1262,0.1342,0.1454,0.1608,0.1755,0.183,0.2065,0.2222,0.2469,0.2707,0.2869,0.2619,0.2013,0.1371,0.0375,-0.0121,-0.0254,-0.038,-0.053,-0.0536,0.0039,-0.0001,-0.0298,-0.0298,-0.0298,-0.0297,-0.0297,-0.0297,0.1252,0.1338,0.1414,0.1635,0.1761,0.198,0.2119,0.2364,0.2579,0.2833,0.2881,0.2877,0.2258,0.0555,-0.0633,-0.0874,-0.1145,-0.1212,-0.1271,-0.0972,-0.0914,-0.086,-0.0929,-0.1415,-0.1417,-0.1843,-0.1848,-0.1852]}],[{"header":{"parameterUnit":"m.s-1","parameterCategory":2,"la1":30.2991,"la2":30.254,"lo1":-89.0895,"lo2":-89.0444,"dy":0.0017,"dx":0.0017,"nx":28,"ny":28,"refTime":"2023-08-14T21:00:00:Z","depth":"2","parameterNumber":2,"parameterNumberName":"U-component_of_CURRENTS"},"data":[0,0,0,0,0,0,0,0,0,0,0,0,0,0,0,0,0,0,0,0,0,0,0,0,0,0,0,0,0,0,0,0,0,0,0,0,0,0,0,0,0,0,0,0,0,0,0,0,0,0,0,0,0,0,0,0,0,0,0.2526,0.2527,0,0.2647,0.2648,0.2649,0.2661,0.266,0.2659,0.2659,0.2699,0.2701,0.2703,0,0,0,0,0,0,0,0,0,0,0,0,0,0.2315,0.2319,0.2525,0.2527,0.2529,0.2647,0.2648,0.265,0.2661,0.266,0.2659,0.2658,0.2699,0.2701,0.2703,0,0,0,0,0,0,0,0,0,0,0,0,0,0.2415,0.232,0.2525,0.2552,0.2556,0.2647,0.2649,0.265,0.2662,0.266,0.2659,0.2658,0.2698,0.2701,0.2704,0.2748,0,0,0.2712,0.2714,0,0,0,0,0,0,0,0,0.2409,0.2422,0.2547,0.2551,0.2555,0.2642,0.259,0.268,0.2662,0.2617,0.2659,0.2657,0.2676,0.2681,0.2702,0.275,0.2751,0.2713,0.2714,0.2716,0.2716,0,0,0,0,0,0,0,0.2402,0.2417,0.2569,0.2549,0.2554,0.2563,0.2575,0.2607,0.2648,0.2621,0.2623,0.2644,0.2677,0.2699,0.2703,0.2752,0.2713,0.2715,0.2717,0.2718,0.2961,0.2965,0,0,0,0,0,0,0.2397,0.2411,0.2566,0.2573,0.2482,0.2568,0.2582,0.2612,0.2649,0.2656,0.2645,0.2644,0.2695,0.2699,0.2704,0.2836,0.2716,0.2718,0.272,0.2956,0.2962,0.2967,0,0,0,0,0,0,0.2392,0.241,0.2561,0.2497,0.2517,0.2574,0.2607,0.2615,0.2655,0.2669,0.2673,0.2679,0.2694,0.27,0.2767,0.2834,0.272,0.2722,0.2951,0.2958,0.2964,0.3048,0,0,0,0,0,0,0.2386,0.2408,0.2432,0.2497,0.2521,0.2632,0.2609,0.2618,0.267,0.2671,0.27,0.2701,0.2693,0.2763,0.277,0.2836,0.2724,0.2945,0.2954,0.2962,0.304,0.3058,0.3073,0,0,0,0,0,0.2378,0.2419,0.2433,0.2452,0.2551,0.2635,0.2648,0.2679,0.2673,0.2706,0.2733,0.2701,0.2825,0.2769,0.2776,0.2844,0.294,0.2951,0.2962,0.3032,0.3054,0.3072,0,0,0,0,0,0,0.2347,0.2426,0.2442,0.2507,0.2573,0.2639,0.2677,0.2698,0.2747,0.275,0.2747,0.2753,0.284,0.2844,0.2782,0.2949,0.2884,0.2896,0.2936,0.2956,0.2972,0.297,0.2727,0,0,0,0,0,0.2351,0.2402,0.2477,0.2534,0.2568,0.2627,0.2665,0.2695,0.2746,0.2767,0.2791,0.2834,0.2891,0.292,0.2963,0.3046,0.3039,0.3105,0.3121,0.3135,0.3144,0.3224,0.3247,0.3002,0.3002,0.3002,0,0,0.2354,0.2409,0.2436,0.2531,0.2582,0.2647,0.2646,0.2724,0.2778,0.2764,0.2845,0.2886,0.2928,0.3023,0.3064,0.3031,0.3198,0.3148,0.3159,0.3161,0.3238,0.3261,0.3282,0.3009,0.3008,0.3007,0,0,0.2384,0.2438,0.2484,0.2546,0.2637,0.2681,0.2709,0.2793,0.2829,0.2917,0.2933,0.3011,0.309,0.3139,0.3171,0.331,0.328,0.3347,0.3427,0.3505,0.3524,0.3541,0.3528,0.3543,0.3358,0.3358,0.3358,0,0.238,0.245,0.2513,0.2578,0.2628,0.2698,0.2757,0.2821,0.2917,0.296,0.2953,0.3113,0.3143,0.3264,0.3331,0.3341,0.3363,0.3334,0.3522,0.3539,0.3555,0.3537,0.3553,0.3364,0.3363,0.3362,0.3362,0,0.2442,0.2501,0.2541,0.2639,0.2706,0.2775,0.2867,0.2943,0.2993,0.3052,0.318,0.3239,0.3332,0.3377,0.34,0.3556,0.3523,0.3523,0.3454,0.3584,0.3558,0.3572,0.3371,0.3369,0.3368,0.3366,0,0,0.2408,0.2549,0.256,0.2601,0.2738,0.2793,0.291,0.3022,0.3084,0.3198,0.3281,0.3427,0.347,0.3514,0.3563,0.3651,0.3776,0.3662,0.3664,0.3617,0.3909,0.3718,0.3714,0.3829,0.3833,0.3836,0.383,0,0.2426,0.2527,0.2604,0.27,0.2754,0.286,0.2949,0.3068,0.3162,0.3265,0.3371,0.3467,0.3519,0.3572,0.3684,0.3768,0.3829,0.3774,0.3819,0.3818,0.3608,0.3731,0.3499,0.3462,0.3843,0.3846,0.3848,0,0.2445,0.2511,0.2598,0.271,0.2742,0.2818,0.296,0.3055,0.3229,0.33,0.3444,0.3517,0.3693,0.3691,0.3894,0.3872,0.3909,0.3946,0.3946,0.3749,0.3656,0.3408,0.3473,0.3871,0.3869,0.3868,0.3866,0,0.2365,0.2495,0.2553,0.2599,0.275,0.2812,0.2903,0.3071,0.3151,0.3336,0.3416,0.3598,0.3705,0.3823,0.395,0.3941,0.4123,0.4092,0.3927,0.3909,0.3707,0.3664,0.4198,0.4198,0.4198,0.4198,0.4198,0,0.2343,0.238,0.2521,0.2554,0.2617,0.2759,0.2853,0.2968,0.3141,0.3253,0.3437,0.3554,0.3765,0.3899,0.3969,0.4004,0.4137,0.3952,0.392,0.3724,0.3686,0.4044,0.4026,0.4198,0.4198,0.4198,0.4198,0,0.2239,0.2338,0.2392,0.2537,0.2582,0.2632,0.2805,0.2881,0.307,0.3227,0.3294,0.356,0.3734,0.3871,0.4041,0.4001,0.4045,0.4006,0.3716,0.3649,0.3753,0.374,0.3791,0.3785,0.378,0.3775,0.3771,0,0.2188,0.2215,0.2337,0.2371,0.2437,0.2541,0.2617,0.2816,0.292,0.3228,0.33,0.3523,0.3659,0.3803,0.3778,0.3777,0.3939,0.3523,0.3447,0.376,0.3724,0.372,0.3715,0.3202,0.3194,0.3188,0.3182,0,0.2073,0.212,0.2168,0.2238,0.2315,0.2396,0.254,0.2602,0.2866,0.3022,0.3258,0.3384,0.3521,0.3441,0.3412,0.3389,0.35,0.3377,0.3852,0.3323,0.32,0.3166,0.3182,0.3124,0.3129,0.3134,0.3137,0.3139,0.1962,0.1963,0.2036,0.2095,0.2171,0.2249,0.2294,0.2467,0.2609,0.2813,0.3035,0.3149,0.3171,0.2995,0.2933,0.2891,0.3076,0.2982,0.3006,0.3036,0.2951,0.2824,0.2657,0.266,0.2663,0.2665,0.2667,0,0.1829,0.1866,0.1897,0.1966,0.199,0.2106,0.2235,0.2278,0.2408,0.2581,0.2733,0.2521,0.2486,0.2572,0.2389,0.2322,0.2347,0.2278,0.2329,0.2387,0.244,0.2328,0.1867,0.1864,0.1862,0.186,0,0,0.1761,0.1752,0.1783,0.178,0.1843,0.1882,0.1943,0.2024,0.2133,0.2124,0.2167,0.2336,0.2472,0.211,0.2053,0.1963,0.2171,0.1901,0.2546,0.2667,0.2716,0.2847,0.2739,0,0,0,0,0]},{"header":{"parameterUnit":"m.s-1","parameterCategory":2,"la1":30.2991,"la2":30.254,"lo1":-89.0895,"lo2":-89.0444,"dy":0.0017,"dx":0.0017,"nx":28,"ny":28,"refTime":"2023-08-14T21:00:00:Z","depth":"2","parameterNumber":3,"parameterNumberName":"V-component_of_CURRENTS"},"data":[0,0,0,0,0,0,0,0,0,0,0,0,0,0,0,0,0,0,0,0,0,0,0,0,0,0,0,0,0,0,0,0,0,0,0,0,0,0,0,0,0,0,0,0,0,0,0,0,0,0,0,0,0,0,0,0,0,0,-0.0553,-0.0554,0,-0.0585,-0.0585,-0.0585,-0.0622,-0.0623,-0.0624,-0.0624,-0.0707,-0.0709,-0.071,0,0,0,0,0,0,0,0,0,0,0,0,0,-0.0568,-0.0567,-0.0553,-0.0554,-0.0554,-0.0585,-0.0585,-0.0586,-0.0622,-0.0623,-0.0624,-0.0625,-0.0707,-0.0708,-0.071,0,0,0,0,0,0,0,0,0,0,0,0,0,-0.0574,-0.0567,-0.0553,-0.0578,-0.0581,-0.0585,-0.0585,-0.0586,-0.0622,-0.0623,-0.0624,-0.0625,-0.0706,-0.0708,-0.071,-0.0701,0,0,-0.0717,-0.0718,0,0,0,0,0,0,0,0,-0.0574,-0.0573,-0.0574,-0.0576,-0.0579,-0.0603,-0.0621,-0.0628,-0.0621,-0.0604,-0.0624,-0.0626,-0.0678,-0.0682,-0.0682,-0.0705,-0.0709,-0.0717,-0.0719,-0.072,-0.072,0,0,0,0,0,0,0,-0.0573,-0.0573,-0.0563,-0.0574,-0.0578,-0.0603,-0.0604,-0.0622,-0.0633,-0.0605,-0.0609,-0.0616,-0.0679,-0.0679,-0.0684,-0.071,-0.0717,-0.0719,-0.0721,-0.0722,-0.0695,-0.0693,0,0,0,0,0,0,-0.057,-0.0572,-0.0563,-0.0565,-0.0582,-0.0602,-0.0603,-0.0592,-0.0632,-0.0639,-0.0615,-0.0617,-0.0675,-0.0681,-0.0687,-0.0648,-0.072,-0.0722,-0.0723,-0.0697,-0.0695,-0.0692,0,0,0,0,0,0,-0.057,-0.0568,-0.0561,-0.0572,-0.0573,-0.06,-0.0588,-0.0592,-0.0587,-0.0639,-0.0647,-0.0605,-0.0676,-0.0684,-0.0687,-0.0653,-0.0723,-0.0725,-0.0699,-0.0696,-0.0693,-0.059,0,0,0,0,0,0,-0.057,-0.0567,-0.0557,-0.0571,-0.0573,-0.0547,-0.0587,-0.0592,-0.0592,-0.0595,-0.0633,-0.0642,-0.0678,-0.0683,-0.0689,-0.0658,-0.0727,-0.0702,-0.0698,-0.0694,-0.0596,-0.0584,-0.0573,0,0,0,0,0,-0.057,-0.0542,-0.0555,-0.0555,-0.0557,-0.0546,-0.0548,-0.0571,-0.059,-0.0573,-0.06,-0.0641,-0.0663,-0.0683,-0.0691,-0.0659,-0.0704,-0.0699,-0.0695,-0.0601,-0.0586,-0.0574,0,0,0,0,0,0,-0.0532,-0.0544,-0.0559,-0.0534,-0.0536,-0.0553,-0.0542,-0.0559,-0.0565,-0.0567,-0.062,-0.063,-0.062,-0.0648,-0.0669,-0.0637,-0.0688,-0.0684,-0.0614,-0.06,-0.0589,-0.0574,-0.0729,0,0,0,0,0,-0.0521,-0.0507,-0.0522,-0.0499,-0.0499,-0.0518,-0.0518,-0.0527,-0.0539,-0.0542,-0.0568,-0.0591,-0.0605,-0.0611,-0.0627,-0.0611,-0.067,-0.0592,-0.058,-0.0571,-0.0561,-0.0599,-0.0591,-0.0677,-0.0677,-0.0677,0,0,-0.0499,-0.0505,-0.0496,-0.0491,-0.0496,-0.0473,-0.0519,-0.0501,-0.0482,-0.055,-0.0526,-0.0555,-0.0592,-0.0574,-0.0571,-0.0594,-0.0584,-0.0565,-0.0556,-0.0552,-0.0594,-0.0586,-0.0579,-0.0674,-0.0675,-0.0675,0,0,-0.0439,-0.0451,-0.0418,-0.0419,-0.042,-0.0429,-0.0419,-0.0424,-0.0427,-0.0409,-0.0453,-0.0468,-0.0474,-0.0502,-0.0517,-0.0453,-0.0525,-0.0439,-0.0368,-0.0405,-0.0399,-0.0394,-0.0495,-0.05,-0.043,-0.043,-0.043,0,-0.0412,-0.0372,-0.0405,-0.0375,-0.0361,-0.0403,-0.0353,-0.0364,-0.0367,-0.0364,-0.0385,-0.0408,-0.0446,-0.0444,-0.041,-0.0431,-0.0471,-0.042,-0.0392,-0.0388,-0.0385,-0.0489,-0.0496,-0.0424,-0.0425,-0.0425,-0.0426,0,-0.0335,-0.0301,-0.0279,-0.0257,-0.0246,-0.0209,-0.0229,-0.0218,-0.023,-0.0247,-0.0245,-0.0297,-0.0312,-0.0319,-0.034,-0.0322,-0.0368,-0.0379,-0.043,-0.037,-0.0484,-0.0493,-0.0416,-0.0418,-0.042,-0.0421,0,0,-0.0265,-0.0229,-0.0219,-0.0182,-0.0176,-0.015,-0.0125,-0.0109,-0.0085,-0.0118,-0.0093,-0.0133,-0.017,-0.0188,-0.0229,-0.0253,-0.0282,-0.0278,-0.0282,-0.0386,-0.0393,-0.0382,-0.0392,-0.0267,-0.0267,-0.0267,-0.0496,0,-0.0185,-0.0097,-0.0104,-0.0011,0.0038,0.0007,0.0041,0.004,0.0025,0.0033,-0.0051,-0.0045,-0.012,-0.0108,-0.0149,-0.0232,-0.0292,-0.0221,-0.0428,-0.0436,-0.0438,-0.0396,-0.0338,-0.0529,-0.0506,-0.0507,-0.0508,0,-0.01,-0.005,0.0053,0.0127,0.0146,0.0182,0.0229,0.0256,0.0225,0.0211,0.0166,0.0109,0.0046,-0.0006,-0.0179,-0.0117,-0.024,-0.0329,-0.034,-0.0365,-0.0438,-0.0577,-0.0548,-0.0525,-0.0523,-0.0522,-0.0521,0,-0.002,0.0068,0.0159,0.0178,0.0239,0.0278,0.0311,0.031,0.0354,0.0322,0.0347,0.0229,0.0209,0.0039,-0.0133,-0.0148,-0.0316,-0.0385,-0.0524,-0.053,-0.0541,-0.0544,-0.0513,-0.0512,-0.0512,-0.0511,-0.051,0,0.0074,0.0153,0.02,0.0248,0.0361,0.0369,0.0473,0.0474,0.0499,0.057,0.0449,0.0484,0.0244,0.0126,-0.0091,-0.0316,-0.0307,-0.051,-0.0565,-0.0505,-0.0503,-0.0534,-0.0534,-0.052,-0.0518,-0.0516,-0.0515,0,0.016,0.019,0.0298,0.0372,0.0403,0.0482,0.0588,0.0659,0.0663,0.0751,0.0757,0.0679,0.0507,0.0236,-0.0032,-0.0232,-0.0472,-0.0556,-0.0493,-0.0534,-0.0705,-0.0697,-0.0802,-0.0803,-0.0804,-0.0805,-0.0805,0,0.022,0.0279,0.0382,0.0449,0.0488,0.0599,0.0684,0.0731,0.0815,0.0887,0.0944,0.0831,0.0753,0.0332,-0.0029,-0.0453,-0.0483,-0.0639,-0.0663,-0.068,-0.0725,-0.0715,-0.0705,-0.0684,-0.0683,-0.0683,-0.0683,0,0.0331,0.0353,0.0432,0.0554,0.0654,0.0786,0.0908,0.1,0.1078,0.1152,0.125,0.1199,0.0812,0.0436,-0.0095,-0.0352,-0.0575,-0.0646,-0.0658,-0.0583,-0.0576,-0.0617,-0.0611,-0.068,-0.068,-0.068,-0.068,-0.068,0.0401,0.0472,0.0553,0.0675,0.0795,0.0957,0.1087,0.1222,0.1378,0.1472,0.1424,0.1332,0.089,0.0189,-0.0181,-0.0541,-0.0596,-0.0744,-0.0742,-0.0742,-0.0649,-0.0639,-0.0745,-0.0745,-0.0746,-0.0746,-0.0747,0,0.0478,0.0553,0.0671,0.0823,0.0968,0.1012,0.1229,0.1381,0.1587,0.1582,0.1598,0.1142,0.072,0.0275,-0.0264,-0.0629,-0.0637,-0.0712,-0.066,-0.0662,-0.0664,-0.0565,-0.064,-0.0641,-0.0641,-0.0641,0,0,0.0524,0.0637,0.0695,0.0935,0.1051,0.1269,0.1403,0.1633,0.1719,0.1673,0.1553,0.1308,0.0797,0.0396,-0.0079,-0.0326,-0.0393,-0.0364,-0.042,-0.0304,-0.0301,-0.0664,-0.0511,0,0,0,0,0]}],[{"header":{"parameterUnit":"m.s-1","parameterCategory":2,"la1":30.2991,"la2":30.254,"lo1":-89.0895,"lo2":-89.0444,"dy":0.0017,"dx":0.0017,"nx":28,"ny":28,"refTime":"2023-08-14T21:00:00:Z","depth":"4","parameterNumber":2,"parameterNumberName":"U-component_of_CURRENTS"},"data":[0,0,0,0,0,0,0,0,0,0,0,0,0,0,0,0,0,0,0,0,0,0,0,0,0,0,0,0,0,0,0,0,0,0,0,0,0,0,0,0,0,0,0,0,0,0,0,0,0,0,0,0,0,0,0,0,0,0,0.0903,0.0903,0,0.0965,0.0966,0.0967,0.1029,0.1029,0.103,0.103,0.111,0.1112,0.1114,0,0,0,0,0,0,0,0,0,0,0,0,0,0.0841,0.0842,0.0902,0.0903,0.0903,0.0965,0.0966,0.0968,0.1029,0.1029,0.103,0.103,0.111,0.1112,0.1114,0,0,0,0,0,0,0,0,0,0,0,0,0,0.0886,0.0842,0.0902,0.0938,0.0942,0.0965,0.0966,0.0968,0.1029,0.1029,0.103,0.1031,0.1109,0.1111,0.1114,0.1117,0,0,0.1122,0.1123,0,0,0,0,0,0,0,0,0.0883,0.0889,0.0933,0.0936,0.094,0.0986,0.0974,0.1017,0.1029,0.1,0.103,0.1031,0.1067,0.1073,0.1089,0.1121,0.1124,0.1122,0.1124,0.1125,0.1126,0,0,0,0,0,0,0,0.088,0.0886,0.0932,0.0933,0.0937,0.0953,0.096,0.0983,0.1033,0.1003,0.1006,0.1006,0.107,0.1087,0.1092,0.1126,0.1122,0.1124,0.1126,0.1127,0.1197,0.1197,0,0,0,0,0,0,0.0863,0.0883,0.0929,0.0933,0.0908,0.0953,0.0962,0.0974,0.1032,0.104,0.1006,0.1009,0.1082,0.1088,0.1095,0.1179,0.1125,0.1127,0.1129,0.1196,0.1197,0.1197,0,0,0,0,0,0,0.0862,0.0867,0.0927,0.0905,0.0914,0.0953,0.0967,0.0975,0.1017,0.1034,0.1043,0.1042,0.1083,0.1091,0.1128,0.118,0.1128,0.1131,0.1196,0.1196,0.1197,0.1299,0,0,0,0,0,0,0.086,0.0867,0.0888,0.0905,0.0914,0.0958,0.0966,0.0976,0.1012,0.1018,0.1067,0.1074,0.1084,0.1124,0.1131,0.1183,0.1133,0.1196,0.1196,0.1197,0.1295,0.1303,0.131,0,0,0,0,0,0.0858,0.0864,0.0889,0.0895,0.0937,0.0959,0.0967,0.0998,0.1014,0.1038,0.1063,0.1074,0.1132,0.1127,0.1134,0.1188,0.1195,0.1196,0.1197,0.1292,0.1302,0.1309,0,0,0,0,0,0,0.0841,0.0872,0.0899,0.0915,0.0948,0.0968,0.099,0.1012,0.1052,0.1067,0.1082,0.1091,0.1129,0.1136,0.113,0.1202,0.1164,0.1166,0.1234,0.1242,0.1249,0.1241,0.1135,0,0,0,0,0,0.0849,0.0876,0.0902,0.0924,0.0939,0.0974,0.0993,0.102,0.1045,0.1067,0.1104,0.1127,0.1134,0.1171,0.1171,0.1232,0.121,0.1265,0.1272,0.1278,0.1272,0.1273,0.1281,0.1199,0.1199,0.1199,0,0,0.0853,0.0871,0.089,0.0925,0.0954,0.0978,0.0989,0.1027,0.1065,0.1067,0.1142,0.1145,0.1142,0.1194,0.1216,0.1219,0.1291,0.1279,0.1285,0.1275,0.1275,0.1283,0.129,0.1199,0.1199,0.1199,0,0,0.0855,0.0889,0.0911,0.094,0.0984,0.1,0.1015,0.1064,0.111,0.1157,0.1163,0.1194,0.1232,0.1254,0.1258,0.1302,0.1303,0.1319,0.1391,0.1394,0.1401,0.1407,0.1403,0.1408,0.1356,0.1356,0.1356,0,0.0862,0.089,0.0921,0.0946,0.0974,0.1009,0.1041,0.1082,0.1146,0.1183,0.1186,0.1226,0.1247,0.129,0.1324,0.1322,0.1324,0.137,0.1406,0.1411,0.1416,0.141,0.1414,0.1361,0.136,0.136,0.1359,0,0.0874,0.0911,0.0922,0.0971,0.1006,0.1038,0.109,0.1146,0.1188,0.1224,0.1278,0.1297,0.1327,0.1349,0.1362,0.1423,0.1414,0.1393,0.1393,0.1431,0.1421,0.1424,0.1368,0.1366,0.1365,0.1363,0,0,0.0843,0.092,0.0927,0.0967,0.1029,0.1054,0.1121,0.1184,0.1229,0.1287,0.1351,0.1378,0.1406,0.1411,0.1443,0.1477,0.1535,0.1485,0.1483,0.1495,0.1553,0.1519,0.1518,0.1543,0.1543,0.1544,0.154,0,0.0848,0.0901,0.094,0.1001,0.1033,0.1096,0.1152,0.1222,0.1274,0.135,0.1384,0.1442,0.1427,0.148,0.1501,0.1527,0.1544,0.1537,0.15,0.1498,0.1476,0.152,0.1546,0.1542,0.1542,0.1542,0.1543,0,0.0834,0.0878,0.0941,0.1033,0.1054,0.1097,0.1193,0.1258,0.1355,0.1403,0.1454,0.1494,0.1574,0.155,0.1572,0.1581,0.1574,0.1571,0.157,0.1499,0.1468,0.1488,0.1546,0.1546,0.1546,0.1546,0.1545,0,0.0787,0.0872,0.0928,0.096,0.1062,0.1117,0.1181,0.1275,0.1345,0.1466,0.1514,0.1572,0.1633,0.1621,0.1642,0.1629,0.1649,0.1614,0.1549,0.1546,0.1533,0.1526,0.1595,0.1595,0.1595,0.1595,0.1595,0,0.0757,0.0802,0.0916,0.0947,0.1023,0.1113,0.1205,0.1272,0.1386,0.1458,0.1553,0.16,0.1662,0.1693,0.1669,0.1629,0.1658,0.156,0.1547,0.1576,0.1574,0.1535,0.1529,0.1595,0.1595,0.1595,0.1595,0,0.0691,0.0767,0.0832,0.0955,0.1002,0.1063,0.122,0.1268,0.139,0.1489,0.1548,0.1657,0.1703,0.1725,0.1735,0.1666,0.1634,0.1602,0.1652,0.164,0.1516,0.1514,0.1518,0.1516,0.1515,0.1515,0.1514,0,0.0666,0.0691,0.0822,0.0865,0.0926,0.1041,0.1106,0.1255,0.1312,0.1492,0.1519,0.1646,0.1701,0.1663,0.1695,0.1653,0.162,0.1594,0.1532,0.1523,0.151,0.1509,0.1509,0.1512,0.1512,0.1512,0.1512,0,0.0604,0.0652,0.0702,0.0792,0.0869,0.0961,0.1076,0.1117,0.1286,0.1402,0.1483,0.1546,0.1599,0.1619,0.1629,0.1578,0.1614,0.1583,0.1583,0.1524,0.1517,0.1504,0.1505,0.1508,0.1509,0.1509,0.1509,0,0.0552,0.0567,0.0635,0.0709,0.0798,0.0865,0.0942,0.1035,0.1131,0.1332,0.1354,0.1471,0.1584,0.158,0.1569,0.1559,0.1511,0.1441,0.1448,0.1452,0.1437,0.1419,0.1373,0,0,0,0,0,0.0501,0.0515,0.0555,0.0637,0.0714,0.0778,0.0909,0.0986,0.1153,0.1176,0.1275,0.1328,0.1387,0.144,0.1409,0.1512,0.1495,0.1469,0.1412,0.1489,0.1493,0.1484,0,0,0,0,0,0,0.0472,0.0503,0.0521,0.0562,0.0601,0.0689,0.077,0.0873,0.091,0.1078,0.1107,0.1246,0.13,0.1379,0.1378,0.1395,0.1334,0.1548,0.1545,0.1487,0.1491,0.1494,0.1486,0,0,0,0,0]},{"header":{"parameterUnit":"m.s-1","parameterCategory":2,"la1":30.2991,"la2":30.254,"lo1":-89.0895,"lo2":-89.0444,"dy":0.0017,"dx":0.0017,"nx":28,"ny":28,"refTime":"2023-08-14T21:00:00:Z","depth":"4","parameterNumber":3,"parameterNumberName":"V-component_of_CURRENTS"},"data":[0,0,0,0,0,0,0,0,0,0,0,0,0,0,0,0,0,0,0,0,0,0,0,0,0,0,0,0,0,0,0,0,0,0,0,0,0,0,0,0,0,0,0,0,0,0,0,0,0,0,0,0,0,0,0,0,0,0,-0.0197,-0.0198,0,-0.0271,-0.0272,-0.0273,-0.0288,-0.0287,-0.0286,-0.0285,-0.0395,-0.0399,-0.0403,0,0,0,0,0,0,0,0,0,0,0,0,0,-0.0113,-0.0114,-0.0197,-0.0198,-0.0199,-0.0271,-0.0272,-0.0274,-0.0288,-0.0287,-0.0286,-0.0285,-0.0394,-0.0399,-0.0403,0,0,0,0,0,0,0,0,0,0,0,0,0,-0.0167,-0.0115,-0.0197,-0.0213,-0.0215,-0.0271,-0.0272,-0.0274,-0.0288,-0.0287,-0.0286,-0.0285,-0.0393,-0.0398,-0.0404,-0.0462,0,0,-0.042,-0.0423,0,0,0,0,0,0,0,0,-0.0163,-0.017,-0.021,-0.0212,-0.0214,-0.0267,-0.0283,-0.0338,-0.0288,-0.0263,-0.0285,-0.0284,-0.0355,-0.0364,-0.0383,-0.0467,-0.0471,-0.0421,-0.0424,-0.0427,-0.0428,0,0,0,0,0,0,0,-0.016,-0.0167,-0.0229,-0.0211,-0.0213,-0.0231,-0.0237,-0.0294,-0.0317,-0.0265,-0.0266,-0.027,-0.0357,-0.0378,-0.0386,-0.0473,-0.0421,-0.0426,-0.0429,-0.0431,-0.0602,-0.0603,0,0,0,0,0,0,-0.0145,-0.0164,-0.0227,-0.0231,-0.0183,-0.0233,-0.024,-0.0253,-0.0316,-0.0323,-0.0271,-0.0271,-0.0369,-0.0379,-0.039,-0.0452,-0.0427,-0.0432,-0.0435,-0.0601,-0.0602,-0.0603,0,0,0,0,0,0,-0.0143,-0.015,-0.0224,-0.0196,-0.0207,-0.0235,-0.025,-0.0255,-0.0278,-0.032,-0.0328,-0.0288,-0.0368,-0.0382,-0.0439,-0.0457,-0.0434,-0.0439,-0.0599,-0.0601,-0.0603,-0.0584,0,0,0,0,0,0,-0.0141,-0.015,-0.0164,-0.0196,-0.0207,-0.025,-0.0251,-0.0257,-0.0281,-0.0282,-0.0338,-0.0346,-0.0369,-0.0431,-0.0445,-0.0464,-0.0444,-0.0598,-0.06,-0.0602,-0.0583,-0.0585,-0.0587,0,0,0,0,0,-0.0138,-0.0148,-0.0164,-0.0172,-0.0223,-0.025,-0.0258,-0.0276,-0.0283,-0.0293,-0.0333,-0.0345,-0.0455,-0.0437,-0.0453,-0.0474,-0.0596,-0.0599,-0.0602,-0.0582,-0.0585,-0.0586,0,0,0,0,0,0,-0.0123,-0.0151,-0.0169,-0.019,-0.0218,-0.0251,-0.0265,-0.0283,-0.0324,-0.0329,-0.0367,-0.038,-0.0432,-0.0463,-0.0442,-0.053,-0.0526,-0.0532,-0.0506,-0.0508,-0.051,-0.0472,-0.0448,0,0,0,0,0,-0.0127,-0.0141,-0.0174,-0.0195,-0.0206,-0.0242,-0.026,-0.0274,-0.0309,-0.0326,-0.0369,-0.0417,-0.0459,-0.0489,-0.0531,-0.0591,-0.0598,-0.0614,-0.0616,-0.0617,-0.0598,-0.0629,-0.0631,-0.0613,-0.0612,-0.0612,0,0,-0.013,-0.0147,-0.0158,-0.0193,-0.0218,-0.0228,-0.025,-0.0274,-0.0287,-0.0335,-0.0379,-0.0427,-0.0476,-0.0529,-0.0557,-0.0556,-0.063,-0.0621,-0.0621,-0.0601,-0.0632,-0.0633,-0.0634,-0.0614,-0.0614,-0.0614,0,0,-0.0126,-0.0157,-0.0161,-0.018,-0.021,-0.0228,-0.0235,-0.0278,-0.0301,-0.0349,-0.0385,-0.0439,-0.0514,-0.0549,-0.0575,-0.0618,-0.0634,-0.0644,-0.0628,-0.0659,-0.066,-0.066,-0.0677,-0.0679,-0.0649,-0.0649,-0.0649,0,-0.0129,-0.0137,-0.0168,-0.0172,-0.0182,-0.0223,-0.0226,-0.0257,-0.0317,-0.0339,-0.0354,-0.0461,-0.0514,-0.0565,-0.0583,-0.0619,-0.0635,-0.0613,-0.0658,-0.0659,-0.066,-0.0677,-0.0679,-0.0648,-0.0648,-0.0648,-0.0648,0,-0.0119,-0.013,-0.0133,-0.0148,-0.0166,-0.0177,-0.0213,-0.0244,-0.0279,-0.0312,-0.0374,-0.0446,-0.0503,-0.0542,-0.0578,-0.0624,-0.0632,-0.0651,-0.0643,-0.066,-0.0678,-0.0681,-0.0647,-0.0647,-0.0648,-0.0648,0,0,-0.0109,-0.0122,-0.0124,-0.0121,-0.0153,-0.0162,-0.0187,-0.0218,-0.0231,-0.0299,-0.0328,-0.0416,-0.046,-0.0492,-0.0556,-0.0594,-0.0635,-0.063,-0.0632,-0.0629,-0.0695,-0.0667,-0.0668,-0.0665,-0.0665,-0.0665,-0.0705,0,-0.0091,-0.008,-0.0097,-0.0091,-0.0087,-0.0126,-0.0142,-0.018,-0.0221,-0.0266,-0.0339,-0.0392,-0.0439,-0.048,-0.0525,-0.0614,-0.0642,-0.0621,-0.0693,-0.0695,-0.0654,-0.067,-0.0667,-0.0708,-0.0708,-0.0709,-0.0709,0,-0.0073,-0.0063,-0.005,-0.0052,-0.0055,-0.006,-0.0085,-0.0107,-0.0173,-0.021,-0.0267,-0.0331,-0.0412,-0.0448,-0.0559,-0.0547,-0.0611,-0.0667,-0.067,-0.0645,-0.0672,-0.069,-0.0715,-0.0714,-0.0714,-0.0714,-0.0713,0,-0.0038,-0.0032,-0.0015,-0.0017,-0.0028,-0.0032,-0.0042,-0.0091,-0.0103,-0.0177,-0.0195,-0.0293,-0.0344,-0.0434,-0.0556,-0.0565,-0.0666,-0.0693,-0.0714,-0.0713,-0.0733,-0.0732,-0.0746,-0.0746,-0.0746,-0.0746,-0.0746,0,-0.0011,0.0001,0.0007,0.0016,0.0038,0.001,0.0015,-0.0013,-0.0053,-0.0058,-0.0161,-0.0186,-0.0344,-0.0428,-0.0535,-0.0628,-0.0646,-0.0699,-0.072,-0.0727,-0.0725,-0.0735,-0.0734,-0.0748,-0.0747,-0.0747,-0.0747,0,0.0013,0.0015,0.0041,0.0049,0.0055,0.0068,0.0068,0.0072,0.0031,0.0021,-0.0,-0.0113,-0.0226,-0.0366,-0.0523,-0.0586,-0.0692,-0.0716,-0.07,-0.072,-0.0722,-0.0719,-0.074,-0.0739,-0.0738,-0.0738,-0.0737,0,0.0025,0.0043,0.0073,0.0098,0.0103,0.0122,0.0136,0.0112,0.0124,0.0075,0.0078,-0.0037,-0.0124,-0.0307,-0.047,-0.0649,-0.0673,-0.0713,-0.0727,-0.0702,-0.0721,-0.0719,-0.0717,-0.0736,-0.0736,-0.0736,-0.0736,0,0.0057,0.0064,0.0089,0.0144,0.0173,0.0202,0.0226,0.0246,0.0223,0.0194,0.015,0.003,-0.0095,-0.0279,-0.0418,-0.055,-0.0686,-0.0708,-0.071,-0.0724,-0.0699,-0.0717,-0.0716,-0.0734,-0.0734,-0.0734,-0.0734,0,0.008,0.0104,0.0141,0.0187,0.023,0.0269,0.0275,0.029,0.0292,0.0252,0.0237,0.0077,-0.0026,-0.0226,-0.0357,-0.0485,-0.052,-0.0547,-0.0559,-0.0563,-0.0508,-0.045,-0.0416,0,0,0,0,0,0.0105,0.0136,0.0184,0.0231,0.0274,0.0293,0.0332,0.0332,0.0326,0.0317,0.0281,0.0163,-0.0047,-0.0156,-0.0276,-0.0358,-0.055,-0.0501,-0.0589,-0.0722,-0.0725,-0.0688,0,0,0,0,0,0,0.0123,0.0169,0.019,0.026,0.0293,0.0337,0.0359,0.0354,0.0349,0.0324,0.0209,0.0149,-0.0066,0.002,-0.0276,-0.032,-0.0385,-0.0609,-0.0611,-0.0721,-0.0723,-0.0725,-0.0689,0,0,0,0,0]}]]